Location: Hurecourt
(47.9030°N, 6.0653°E)
Time: 04:27:31
(UTC+00:00)

Cosmos 1656 - Pass Details

Date: 14 July 2020
Orbit: 800 x 848 km, 71.1° (Epoch: 06 August)

Event Time Altitude Azimuth Distance (km) Brightness Sun altitude
Rises 00:44:01 0° 333° (NNW) 3,319 7.5 -19.1°
Reaches altitude 10° 00:46:27 10° 336° (NNW) 2,385 6.8 -19.0°
Maximum altitude 00:51:53 70° 61° (ENE) 853 3.8 -18.7°
Enters shadow 00:56:29 15° 144° (SE) 2,071 5.4 -18.5°
